Location: Budapest
(47.4979°N, 19.0402°E)
Time: 19:19:14
(UTC+01:00)

N. Korean satellite - Visible Passes

Search period start: 22 January 2018 00:00
Search period end: 01 February 2018 00:00
Orbit: 458 x 515 km, 97.2° (Epoch: 21 January)

Date Brightness Start Highest point End Pass type
(mag) Time Alt. Az. Time Alt. Az. Time Alt. Az.
22 Jan 9.5 05:42:55 10° NE 05:45:28 19° E 05:48:03 10° SE visible
22 Jan 7.6 17:54:48 10° S 17:58:15 47° W 18:01:42 10° NNW visible
23 Jan 10.2 05:20:52 10° ENE 05:21:36 10° E 05:22:19 10° E visible
23 Jan 6.5 17:31:00 10° SSE 17:34:34 86° ENE 17:38:06 10° NNW visible
24 Jan 6.8 06:28:21 10° NNE 06:31:48 72° ESE 06:35:15 10° S visible
24 Jan 6.9 17:07:33 10° SE 17:10:57 43° ENE 17:14:17 10° N visible
24 Jan 9.9 18:42:43 10° SW 18:44:40 14° W 18:46:37 10° WNW visible
25 Jan 8.3 06:04:51 10° NNE 06:08:04 35° E 06:11:17 10° SSE visible
25 Jan 9.0 18:17:50 10° SSW 18:20:49 25° W 18:23:48 10° NW visible
26 Jan 9.5 05:41:42 10° NE 05:44:16 19° E 05:46:48 10° SE visible
26 Jan 7.6 17:53:37 10° S 17:57:03 48° W 18:00:28 10° NNW visible
27 Jan 10.3 05:19:47 10° E 05:20:22 10° E 05:20:57 10° E visible
27 Jan 6.4 17:29:49 10° SSE 17:33:21 84° ENE 17:36:51 10° N visible
28 Jan 6.8 06:27:06 10° NNE 06:30:34 70° ESE 06:34:02 10° S visible
28 Jan 6.9 17:06:23 10° SE 17:09:43 41° ENE 17:13:01 10° N visible
28 Jan 9.9 18:41:29 10° SW 18:43:26 14° W 18:45:23 10° WNW visible
29 Jan 8.4 06:03:36 10° NNE 06:06:49 34° E 06:10:02 10° SSE visible
29 Jan 9.0 18:16:36 10° SSW 18:19:35 26° W 18:22:33 10° NW visible
30 Jan 9.6 05:40:28 10° NE 05:43:00 19° E 05:45:33 10° SE visible
30 Jan 7.5 17:52:23 10° S 17:55:48 49° W 17:59:11 10° NNW visible
31 Jan 10.4 05:18:39 10° E 05:19:06 10° E 05:19:32 10° E visible
31 Jan 6.4 17:28:35 10° SSE 17:32:05 81° ENE 17:35:34 10° N visible
